GW0776 Weather Reports


time (UTC)temp
F
wind
direction
speed
knots
gust
knots
rain 1hr
in
rain 24hr
in
rain mn
in
humidity
%
barometer
mb
20260505194511 84 215 0.0 4.3 0.00 0.00 0.00 77 1009.2
20260505194010 84 246 0.9 7.8 0.00 0.00 0.00 78 1009.2
20260505193510 84 212 0.9 7.8 0.00 0.00 0.00 77 1009.1
20260505193010 84 273 1.7 5.2 0.00 0.00 0.00 78 1009.2
20260505192510 83 94 0.9 7.0 0.00 0.00 0.00 79 1009.3
20260505192010 82 181 0.9 7.0 0.00 0.00 0.00 80 1009.4
20260505191510 82 246 0.0 5.2 0.00 0.00 0.00 79 1009.3
20260505191010 82 144 0.9 5.2 0.00 0.00 0.00 78 1009.4
20260505190511 82 331 0.9 5.2 0.00 0.00 0.00 79 1009.4
20260505190010 82 164 0.9 5.2 0.00 0.00 0.00 78 1009.5
20260505185511 82 234 0.9 5.2 0.00 0.00 0.00 78 1009.4
20260505185011 83 202 0.9 6.1 0.00 0.00 0.00 78 1009.4
20260505184510 83 84 1.7 6.1 0.00 0.00 0.00 77 1009.4
20260505184010 83 159 2.6 5.2 0.00 0.00 0.00 78 1009.5
20260505183511 83 215 2.6 5.2 0.00 0.00 0.00 78 1009.5
20260505183010 82 140 0.9 3.5 0.00 0.00 0.00 78 1009.6
20260505182010 82 170 0.0 5.2 0.00 0.00 0.00 79 1009.6
20260505181510 82 73 0.9 5.2 0.00 0.00 0.00 80 1009.6
20260505181010 82 190 0.9 8.7 0.00 0.00 0.00 80 1009.6
20260505180010 81 233 2.6 4.3 0.00 0.00 0.00 81 1009.6
20260505175510 81 217 0.0 4.3 0.00 0.00 0.00 81 1009.7
20260505175010 81 262 1.7 7.0 0.00 0.00 0.00 81 1009.8
20260505174510 81 233 1.7 7.0 0.00 0.00 0.00 81 1009.8
20260505174010 81 289 0.9 7.8 0.00 0.00 0.00 81 1009.9
20260505173510 81 179 1.7 7.8 0.00 0.00 0.00 81 1009.9
20260505173010 81 134 3.5 4.3 0.00 0.00 0.00 81 1009.9
20260505172511 81 214 0.9 3.5 0.00 0.00 0.00 82 1010.0
20260505172010 80 234 1.7 3.5 0.00 0.00 0.00 82 1010.0
20260505171510 80 110 1.7 4.3 0.00 0.00 0.00 82 1010.0
20260505170510 80 256 2.6 3.5 0.00 0.00 0.00 83 1010.1
20260505170010 80 36 0.0 4.3 0.00 0.00 0.00 83 1010.1
20260505165510 79 201 0.9 4.3 0.00 0.00 0.00 84 1010.2
20260505165010 79 142 0.9 3.5 0.00 0.00 0.00 84 1010.2
20260505164510 79 310 1.7 3.5 0.00 0.00 0.00 85 1010.3
20260505164010 79 158 0.0 3.5 0.00 0.00 0.00 85 1010.3
20260505163510 78 195 0.9 3.5 0.00 0.00 0.00 84 1010.7
20260505163011 79 148 1.7 3.5 0.00 0.00 0.00 84 1010.3
20260505162011 78 99 2.6 4.3 0.00 0.00 0.00 84 1010.2
20260505161511 78 174 2.6 4.3 0.00 0.00 0.00 84 1010.1
20260505160511 78 185 0.0 2.6 0.00 0.00 0.00 84 1010.2
20260505153011 78 135 2.6 9.6 0.00 0.00 0.00 84 1009.9
20260505152511 78 116 2.6 7.0 0.00 0.00 0.00 84 1009.9
20260505151511 78 227 0.9 4.3 0.00 0.00 0.00 84 1009.8
20260505151011 78 117 2.6 4.3 0.00 0.00 0.00 84 1009.9
20260505140511 76 160 2.6 7.8 0.00 0.00 0.00 87 1009.6
20260505125011 74 136 0.9 7.8 0.00 0.00 0.00 90 1009.0
20260505124510 74 159 0.9 4.3 0.00 0.00 0.00 90 1009.1
20260505124010 73 143 0.0 2.6 0.00 0.00 0.00 90 1009.4
20260505123510 73 244 0.0 2.6 0.00 0.00 0.00 90 1009.6
20260505123010 73 188 0.0 2.6 0.00 0.00 0.00 91 1009.4
20260505122010 73 164 0.0 0.0 0.00 0.00 0.00 90 1009.5
20260505121510 72 156 0.0 0.0 0.00 0.00 0.00 90 1009.3
20260505121010 72 128 0.0 1.7 0.00 0.00 0.00 90 1009.4
20260505120510 72 131 0.0 1.7 0.00 0.00 0.00 90 1009.0
20260505120010 72 179 0.9 2.6 0.00 0.00 0.00 91 1009.0
20260505115510 72 215 0.9 2.6 0.00 0.00 0.00 90 1008.9
20260505115010 72 213 0.9 2.6 0.00 0.00 0.00 90 1008.9
20260505114510 72 164 0.9 2.6 0.00 0.00 0.00 90 1009.0
20260505114010 72 121 0.0 2.6 0.00 0.00 0.00 90 1009.1
20260505113510 72 146 0.9 2.6 0.00 0.00 0.00 90 1009.3
20260505113010 72 203 0.0 2.6 0.00 0.00 0.00 90 1009.1
20260505112510 72 148 0.0 1.7 0.00 0.00 0.00 90 1009.2
20260505112010 72 350 0.0 3.5 0.00 0.00 0.00 90 1009.1
20260505111510 72 206 0.9 3.5 0.00 0.00 0.00 90 1009.1
20260505111010 72 174 0.9 4.3 0.00 0.00 0.00 90 1009.0
20260505102011 72 167 0.9 4.3 0.00 0.00 0.00 90 1009.0
20260505101511 71 159 0.0 1.7 0.00 0.00 0.00 90 1009.0
20260505101011 72 183 0.9 0.9 0.00 0.00 0.00 89 1009.1
20260505100511 72 122 0.0 1.7 0.00 0.00 0.00 89 1009.3
20260505100011 72 154 0.0 1.7 0.00 0.00 0.00 89 1009.3
20260505095511 72 139 0.0 0.0 0.00 0.00 0.00 89 1009.4
20260505095011 72 157 0.0 0.0 0.00 0.00 0.00 89 1009.3
20260505094511 72 171 0.0 2.6 0.00 0.00 0.00 89 1009.3
20260505093011 71 200 0.0 3.5 0.00 0.00 0.00 89 1009.5
20260505092511 71 198 0.9 1.7 0.00 0.00 0.00 89 1009.5
20260505092011 71 143 0.0 2.6 0.00 0.00 0.00 89 1009.5
20260505091511 71 142 0.0 2.6 0.00 0.00 0.00 89 1009.5
20260505091011 71 177 0.0 2.6 0.00 0.00 0.00 89 1009.4
20260505090511 71 148 1.7 1.7 0.00 0.00 0.00 89 1009.5
20260505085511 71 161 0.0 0.9 0.00 0.00 0.00 89 1009.6
20260505085011 71 171 0.0 3.5 0.00 0.00 0.00 89 1009.6
20260505084511 71 183 0.9 3.5 0.00 0.00 0.00 89 1009.5
20260505084011 71 188 0.9 1.7 0.00 0.00 0.00 88 1009.5
20260505083511 71 185 1.7 1.7 0.00 0.00 0.00 88 1009.6
20260505083011 71 185 0.9 2.6 0.00 0.00 0.00 88 1009.9
20260505082511 71 209 0.0 2.6 0.00 0.00 0.00 88 1010.0
20260505082011 71 183 0.0 3.5 0.00 0.00 0.00 88 1010.1
20260505081511 71 163 0.0 3.5 0.00 0.00 0.00 88 1010.0
20260505081011 71 123 1.7 2.6 0.00 0.00 0.00 87 1010.0
20260505080511 71 100 0.0 1.7 0.00 0.00 0.00 87 1010.1
20260505080011 71 178 0.0 1.7 0.00 0.00 0.00 87 1010.2
20260505075511 71 158 0.0 1.7 0.00 0.00 0.00 87 1010.1
20260505075011 72 154 0.9 1.7 0.00 0.00 0.00 87 1010.2
20260505074511 71 154 0.0 1.7 0.00 0.00 0.00 87 1010.2
20260505074011 71 134 0.0 4.3 0.00 0.00 0.00 87 1010.2
20260505073511 71 183 0.0 4.3 0.00 0.00 0.00 86 1010.2
20260505073011 71 140 0.0 1.7 0.00 0.00 0.00 86 1010.2
20260505072011 71 183 0.0 1.7 0.00 0.00 0.00 86 1010.4
20260505071510 71 210 0.0 3.5 0.00 0.00 0.00 86 1010.4
20260505071011 71 192 1.7 3.5 0.00 0.00 0.00 86 1010.5
20260505070511 71 144 0.9 1.7 0.00 0.00 0.00 86 1010.5
20260505070011 71 201 0.0 1.7 0.00 0.00 0.00 86 1010.5
20260505065510 71 188 0.0 4.3 0.00 0.00 0.00 86 1010.7
20260505065011 71 174 0.0 4.3 0.00 0.00 0.00 86 1010.7
20260505064011 71 163 0.9 2.6 0.00 0.00 0.00 85 1010.6
20260505063511 71 154 0.0 1.7 0.00 0.00 0.00 85 1010.8
20260505063011 71 173 0.9 3.5 0.00 0.00 0.00 85 1010.9
20260505062511 71 190 1.7 3.5 0.00 0.00 0.00 85 1010.9
20260505062011 71 165 1.7 2.6 0.00 0.00 0.00 85 1010.9
20260505061511 71 156 0.9 2.6 0.00 0.00 0.00 84 1011.0
20260505061010 71 180 0.0 1.7 0.00 0.00 0.00 84 1011.1
20260505060510 71 148 0.0 1.7 0.00 0.00 0.00 84 1011.2
20260505055510 71 156 0.0 2.6 0.00 0.00 0.00 83 1011.2
20260505055010 71 243 0.9 2.6 0.00 0.00 0.00 83 1011.2
20260505054510 72 181 0.0 3.5 0.00 0.00 0.00 83 1011.1
20260505054010 72 165 0.9 3.5 0.00 0.00 0.00 83 1011.2
20260505053510 72 170 1.7 2.6 0.00 0.00 0.00 83 1011.3
20260505053010 72 172 0.0 1.7 0.00 0.00 0.00 83 1011.4
20260505052510 72 202 0.0 3.5 0.00 0.00 0.00 82 1011.5
20260505052010 72 204 0.9 3.5 0.00 0.00 0.00 82 1011.5
20260505051511 72 183 1.7 3.5 0.00 0.00 0.00 82 1011.4
20260505051010 72 195 0.0 2.6 0.00 0.00 0.00 82 1011.5
20260505050510 72 240 0.0 3.5 0.00 0.00 0.00 81 1011.5
20260505041510 73 98 0.9 7.0 0.00 0.00 0.00 79 1011.5
20260505040510 73 188 2.6 7.8 0.00 0.00 0.00 78 1011.5
20260505035510 74 225 1.7 8.7 0.00 0.00 0.00 78 1011.7
20260505035010 74 183 0.9 6.1 0.00 0.00 0.00 78 1011.6
20260505034510 74 158 1.7 6.1 0.00 0.00 0.00 78 1011.7
20260505034010 74 246 0.9 6.1 0.00 0.00 0.00 78 1011.8
20260505033511 74 219 3.5 5.2 0.00 0.00 0.00 78 1011.9
20260505033011 74 206 0.9 4.3 0.00 0.00 0.00 78 1012.0
20260505032511 74 202 1.7 4.3 0.00 0.00 0.00 78 1011.9
20260505032011 74 152 0.9 3.5 0.00 0.00 0.00 78 1011.9
20260505031511 74 162 3.5 3.5 0.00 0.00 0.00 78 1011.8
20260505030511 74 150 0.9 9.6 0.00 0.00 0.00 77 1011.8
20260505030011 74 189 8.7 7.8 0.00 0.00 0.00 77 1011.7
20260505025511 74 156 1.7 7.8 0.00 0.00 0.00 77 1011.6
20260505024011 74 191 2.6 7.0 0.00 0.00 0.00 77 1011.7
20260505023511 74 204 0.9 4.3 0.00 0.00 0.00 77 1011.8
20260505023011 74 186 0.9 7.0 0.00 0.00 0.00 77 1011.8
20260505022511 74 192 0.0 8.7 0.00 0.00 0.00 76 1011.7
20260505022011 74 219 1.7 8.7 0.00 0.00 0.00 76 1011.7
20260505021011 75 175 2.6 7.8 0.00 0.00 0.00 76 1011.6
20260505020511 75 193 1.7 7.8 0.00 0.00 0.00 75 1011.5
20260505020011 75 129 2.6 8.7 0.00 0.00 0.00 75 1011.4
20260505014011 75 164 0.9 7.0 0.00 0.00 0.00 74 1011.4
20260505013511 75 156 1.7 7.0 0.00 0.00 0.00 74 1011.2
20260505013011 76 190 0.9 6.1 0.00 0.00 0.00 74 1011.2
20260505012511 76 98 0.9 6.1 0.00 0.00 0.00 74 1011.1
20260505011511 76 141 0.0 5.2 0.00 0.00 0.00 74 1011.2
20260505010511 76 188 0.9 2.6 0.00 0.00 0.00 73 1011.2
20260505010010 76 183 0.9 4.3 0.00 0.00 0.00 72 1011.1
20260505005511 76 190 0.9 4.3 0.00 0.00 0.00 72 1011.2
20260505005010 77 212 0.0 6.1 0.00 0.00 0.00 71 1011.1
20260505004511 77 227 1.7 6.1 0.00 0.00 0.00 71 1010.9
20260505004010 77 162 1.7 3.5 0.00 0.00 0.00 70 1010.8
20260505002510 78 196 2.6 5.2 0.00 0.00 0.00 69 1010.7
20260505001510 78 279 0.9 8.7 0.00 0.00 0.00 69 1010.8
20260505001010 78 134 2.6 6.1 0.00 0.00 0.00 68 1010.8
20260505000510 78 265 1.7 5.2 0.00 0.00 0.00 69 1010.9
20260504235510 78 116 5.2 4.3 0.00 0.00 0.00 69 1010.8
20260504235010 79 168 3.5 5.2 0.00 0.00 0.00 69 1010.8
20260504234511 79 163 0.9 5.2 0.00 0.00 0.00 69 1010.8
20260504234011 79 139 0.0 5.2 0.00 0.00 0.00 68 1011.0
20260504233511 79 178 0.9 7.8 0.00 0.00 0.00 67 1011.0
20260504233010 79 158 0.9 7.8 0.00 0.00 0.00 66 1011.1
20260504232510 79 50 1.7 7.0 0.00 0.00 0.00 66 1011.0
20260504232010 79 217 1.7 4.3 0.00 0.00 0.00 66 1011.1
20260504231510 80 127 1.7 7.8 0.00 0.00 0.00 66 1011.3
20260504231010 80 168 1.7 9.6 0.00 0.00 0.00 66 1011.2
20260504230510 80 146 3.5 10.4 0.00 0.00 0.00 65 1011.4
20260504230010 80 135 1.7 10.4 0.00 0.00 0.00 65 1011.4
20260504225511 80 221 0.9 8.7 0.00 0.00 0.00 64 1011.3
20260504225010 80 185 1.7 8.7 0.00 0.00 0.00 64 1011.2
20260504224510 80 172 1.7 7.0 0.00 0.00 0.00 63 1011.3
20260504224010 81 183 0.9 8.7 0.00 0.00 0.00 63 1011.4
20260504223511 81 122 2.6 8.7 0.00 0.00 0.00 62 1011.4
20260504223010 81 175 4.3 8.7 0.00 0.00 0.00 62 1011.5
20260504222510 81 133 2.6 7.0 0.00 0.00 0.00 61 1011.6
20260504222010 81 206 1.7 7.0 0.00 0.00 0.00 61 1011.6
20260504221010 82 220 0.0 4.3 0.00 0.00 0.00 61 1011.7
20260504220010 82 141 0.9 10.4 0.00 0.00 0.00 60 1011.7
20260504215511 82 140 0.0 10.4 0.00 0.00 0.00 60 1011.7
20260504215010 83 196 2.6 5.2 0.00 0.00 0.00 59 1011.8
20260504214510 83 121 1.7 4.3 0.00 0.00 0.00 59 1011.8
20260504214011 83 170 0.9 8.7 0.00 0.00 0.00 59 1011.9
20260504213510 84 133 1.7 8.7 0.00 0.00 0.00 57 1011.9
20260504213010 83 196 1.7 6.1 0.00 0.00 0.00 59 1011.9
20260504212510 83 158 0.9 6.1 0.00 0.00 0.00 58 1012.0
20260504210511 84 284 1.7 4.3 0.00 0.00 0.00 57 1012.3
20260504210011 84 194 1.7 7.0 0.00 0.00 0.00 56 1012.4
20260504205511 84 194 1.7 7.0 0.00 0.00 0.00 55 1012.5
20260504205011 84 148 1.7 4.3 0.00 0.00 0.00 58 1012.7
20260504204511 84 298 0.9 4.3 0.00 0.00 0.00 57 1012.8
20260504204011 84 136 1.7 5.2 0.00 0.00 0.00 57 1012.8
20260504203511 84 129 1.7 7.8 0.00 0.00 0.00 56 1012.9
20260504203011 84 183 1.7 7.8 0.00 0.00 0.00 55 1012.9
20260504202511 85 8 0.9 3.5 0.00 0.00 0.00 55 1012.9
20260504202011 85 209 0.9 4.3 0.00 0.00 0.00 56 1013.3
20260504201511 85 3 0.9 4.3 0.00 0.00 0.00 56 1013.3
20260504201011 85 151 1.7 4.3 0.00 0.00 0.00 56 1013.4
20260504200511 84 310 0.9 2.6 0.00 0.00 0.00 58 1013.5
20260504200011 84 156 0.9 4.3 0.00 0.00 0.00 56 1013.5
20260504195511 84 258 0.0 6.1 0.00 0.00 0.00 55 1013.7